Погода в Ле-Туке-Пари-Плаж

Франция     50°31′01″N   1°35′39″E
темп.,
°C
ветер,
м/с
пор.,
м/с
влажн.,
%
обл.,
%
осадки,
мм/ч
давл.,
гПа
погр.,
м
18 мая, вт
вт1823:00+12зюз101285100 1.4 1010350
02:00+12з798285 3.8 1011201
05:00+11зсз688692 1.7 1012305
08:00+11зсз678236 2.4 1013395
11:00+11з67835 0.1 1014498
14:00+11з810844 0.1 1015721
17:00+11з811845 0.0 1016576
20:00+11зюз811837 0.0 1016540
19 мая, ср
ср1923:00+11зюз8128547 0.1 1017487
02:00+11зюз9118599 1.0 1017586
05:00+10юз7887100 0.8 1016528
08:00+10юз5792100 6.1 1016541
11:00+9сз6788100 3.9 1017518
14:00+10зюз448096 6.3 1018312
17:00+11з568124 0.1 1019338
20:00+12зсз5779100 0.5 1020141
20 мая, чт
чт2023:00+12сз6107833 1.1 1022218
02:00+11зсз68840 1.3 1022263
05:00+11зсз468149 0.0 1023285
08:00+11з3478100 0.0 1024316
11:00+11юз6779100 0.0 1024511
14:00+11зюз6885100 0.0 1024428
17:00+12юз4880100 0.0 1022317
20:00+11зюз61083100 0.1 1020469
21 мая, пт
пт2123:00+11ююз101590100 2.4 1018734
02:00+12ююз111688100 3.9 1015983
05:00+10ююз121788100 3.6 1012949
08:00+10ююз121583100 5.3 1010820
11:00+11юз11148985 0.2 1009928
14:00+12юз111583100 0.3 1008848
17:00+12юз1117740 0.1 1005886
20:00+12юз1320720 0.1 10041120
22 мая, сб
сб2223:00+12юз16217518 0.1 10031310
02:00+11юз182182100 0.7 10021368
05:00+11зюз16198597 0.8 10021376
08:00+11зюз15188674 1.8 10031294
11:00+11зюз1418805 0.4 10051517
14:00+11зюз1317755 0.6 10071561
17:00+11зюз1218745 0.0 10071558
20:00+11зюз12157576 0.0 10081336